User: anonymous   Login
Location: Newark
(31.5350°N, 35.0986°E)
Time: 22:15:18
(UTC+00:00)
Language:

Transit 2A Rocket - Orbit

View from above orbital plane
View from above orbital plane
View from above satellite
View from above satellite

Ground track
Ground track

The orbit data is extracted from the following two-line orbital elements,

1    47U 60007C   19257.90715038 -.00000045 +00000-0 +15000-4 0  9991
2    47 066.6661 174.4121 0223929 147.2961 214.2240 14.42048495094808
Epoch (UTC): 14 September 2019 21:46:17
Eccentricity: 0.0223929
inclination: 66.6661°
perigee height: 592 km
apogee height: 911 km
right ascension of ascending node: 174.4121°
argument of perigee: 147.2961°
revolutions per day: 14.42048495
mean anomaly at epoch: 214.2240°
orbit number at epoch: 9480

The dashed part of the orbit path shows where the satellite is in the earth's shadow,  

DLR